Flag for Micronesia Weather past 2 weeks in Tofol, Kosrae, Micronesia

Now
76 °F

Overcast.


Feels Like: 76 °F
Forecast: 82 / 86 °F
Wind: 5 mph from South

Location: Pohnpei

Current Time: Jul 29, 2014 at 1:33:06 AM

Latest Report: Jul 28, 2014 at 11:52 PM


Visibility: 15 mi

Pressure: 29.88 "Hg

Humidity: 95%

Dew point: 74 °F

Location of TofolLocation

Historic Weather in Tofol — Graph

°F

Tofol temperature yesterday

Maximum temperature yesterday: 91 °F (at 1:55 PM)
Minimum temperature yesterday: 75 °F (at 4:55 AM)
Average temperature yesterday: 81 °F

Past Weeks' High & Low Weather Summary

 TemperatureHumidityPressure
High91 °F (Jul 28, 1:55 PM)99% (Jul 14, 6:52 AM)29.93 "Hg (Jul 14, 6:52 AM)
Low74 °F (Jul 18, 5:54 AM)58% (Jul 25, 9:50 PM)29.75 "Hg (Jul 23, 3:55 AM)
Average80 °F88%29.83 "Hg
* Reported Jul 13 11:53 PM — Jul 28 11:52 PM, Tofol, Weather by CustomWeather, © 2014

Note: Actual official high and low records may vary slightly from our data, if they occured in-between our weather recording intervals... More about our weather records

Advertising

Tofol weather history for previous 24 hours

 ConditionsComfort  
Time TempWeatherWind HumidityBarometerVisibility
11:52 PM
Jul 28
76 °FOvercast.5 mph95%29.88 "Hg15 mi
10:53 PM78 °FOvercast.3 mph91%29.90 "Hg15 mi
9:54 PM77 °FPassing clouds.3 mph94%29.89 "Hg15 mi
8:52 PM78 °FPassing clouds.3 mph94%29.88 "Hg15 mi
7:52 PM80 °FPassing clouds.3 mph88%29.85 "Hg15 mi
6:53 PM82 °FPassing clouds.3 mph79%29.83 "Hg15 mi
5:52 PM85 °FOvercast.5 mph70%29.82 "Hg15 mi
4:53 PM87 °FPartly sunny.7 mph71%29.80 "Hg15 mi
3:54 PM87 °FOvercast.6 mph80%29.80 "Hg15 mi
2:53 PM88 °FMore clouds than sun.5 mph80%29.82 "Hg15 mi
1:55 PM91 °FOvercast.7 mph68%29.83 "Hg15 mi
12:55 PM89 °FOvercast.6 mph66%29.83 "Hg15 mi
10:50 AM88 °FOvercast.6 mph70%29.86 "Hg15 mi
9:55 AM87 °FOvercast.7 mph75%29.87 "Hg15 mi
8:50 AM87 °FScattered clouds.5 mph73%29.87 "Hg15 mi
7:51 AM82 °FScattered clouds.2 mph84%29.86 "Hg15 mi
6:50 AM76 °FScattered clouds.3 mph96%29.84 "Hg15 mi
5:57 AM75 °FPassing clouds.3 mph95%29.83 "Hg15 mi
4:55 AM75 °FPassing clouds.3 mph98%29.82 "Hg15 mi
3:54 AM76 °FPassing clouds.5 mph96%29.82 "Hg15 mi
2:50 AM76 °FPassing clouds.3 mph96%29.80 "Hg15 mi
1:54 AM77 °FPassing clouds.3 mph94%29.82 "Hg15 mi
Weather by CustomWeather, © 2014

See weather overviewHow to use our weather pages